Jurien Bay Airport


Codes: YJNB/JUR
Name: Jurien Bay Airport
City:
Country: Australia
Elevation: 15 ft.

Photos at Jurien Bay Airport


   Photos courtesy of SpottingLog. You can add your own sightings and photos by signing up for a free trial today.



No photos found.

Weather at Jurien Bay Airport


Time (UTC)DescriptionTempratureWindCloud coverageVisibilityPressureHumidity
19-Apr-2024 03:00Clear Sky27°C9 mph, NE0%10000m1023hPa34%
19-Apr-2024 06:00Clear Sky27°C7 mph, SW0%10000m1022hPa36%
19-Apr-2024 09:00Clear Sky25°C11 mph, SW0%10000m1022hPa43%
19-Apr-2024 12:00Clear Sky23°C11 mph, SE0%10000m1022hPa54%
19-Apr-2024 15:00Clear Sky23°C11 mph, E0%10000m1022hPa33%
19-Apr-2024 18:00Clear Sky22°C13 mph, NE0%10000m1022hPa33%
19-Apr-2024 21:00Clear Sky21°C13 mph, NE0%10000m1022hPa34%
20-Apr-2024 00:00Clear Sky22°C13 mph, NE0%10000m1023hPa33%
20-Apr-2024 03:00Clear Sky27°C9 mph, N0%10000m1022hPa31%
20-Apr-2024 06:00Clear Sky26°C11 mph, SW0%10000m1020hPa40%
20-Apr-2024 09:00Clear Sky25°C11 mph, S0%10000m1021hPa47%
20-Apr-2024 12:00Clear Sky22°C11 mph, SE0%10000m1022hPa56%
20-Apr-2024 15:00Clear Sky21°C9 mph, E5%10000m1021hPa35%
20-Apr-2024 18:00Clear Sky23°C11 mph, NE3%10000m1021hPa30%
20-Apr-2024 21:00Broken Clouds22°C11 mph, NE69%10000m1020hPa30%
21-Apr-2024 00:00Scattered Clouds22°C11 mph, NE39%10000m1021hPa32%
21-Apr-2024 03:00Clear Sky27°C9 mph, NW6%10000m1021hPa37%
21-Apr-2024 06:00Clear Sky25°C11 mph, W5%10000m1019hPa40%
21-Apr-2024 09:00Clear Sky24°C11 mph, SW4%10000m1019hPa56%
21-Apr-2024 12:00Clear Sky21°C9 mph, SE4%10000m1020hPa68%
21-Apr-2024 15:00Clear Sky20°C11 mph, SE0%10000m1020hPa69%
21-Apr-2024 18:00Clear Sky19°C11 mph, SE1%10000m1021hPa74%
21-Apr-2024 21:00Clear Sky19°C16 mph, SE7%10000m1021hPa83%
22-Apr-2024 00:00Scattered Clouds19°C20 mph, SE26%10000m1023hPa83%
22-Apr-2024 03:00Overcast Clouds22°C22 mph, SE100%10000m1023hPa61%
22-Apr-2024 06:00Overcast Clouds23°C22 mph, S100%10000m1021hPa59%
22-Apr-2024 09:00Overcast Clouds24°C25 mph, SE100%10000m1021hPa49%
22-Apr-2024 12:00Overcast Clouds19°C25 mph, SE100%10000m1025hPa60%
22-Apr-2024 15:00Overcast Clouds18°C22 mph, SE99%10000m1026hPa61%
22-Apr-2024 18:00Overcast Clouds16°C22 mph, SE98%10000m1026hPa58%
22-Apr-2024 21:00Overcast Clouds15°C20 mph, SE100%10000m1027hPa54%
23-Apr-2024 00:00Overcast Clouds14°C20 mph, E100%10000m1029hPa56%
23-Apr-2024 03:00Overcast Clouds19°C18 mph, E100%10000m1027hPa41%
23-Apr-2024 06:00Overcast Clouds22°C16 mph, E100%10000m1024hPa33%
23-Apr-2024 09:00Overcast Clouds22°C16 mph, SE100%10000m1024hPa34%
23-Apr-2024 12:00Overcast Clouds19°C13 mph, SE100%10000m1026hPa34%
23-Apr-2024 15:00Overcast Clouds18°C13 mph, SE100%10000m1026hPa36%
23-Apr-2024 18:00Broken Clouds16°C16 mph, SE81%10000m1026hPa45%
23-Apr-2024 21:00Clear Sky15°C18 mph, E0%10000m1026hPa51%
24-Apr-2024 00:00Clear Sky15°C18 mph, E0%10000m1027hPa52%